Powrót do katalogu

COSMOS 1249 COOLANT

LostLEO
NORAD 28211·DEBRIS·🇷🇺 Russia

Wystrzelony Mar 5, 1981 z Baikonur Cosmodrome

Loading…

Następne Przeloty (najbliższe 24 godziny)

TLE

NieaktualneSource: Space-Track

Epoka: Sep 4, 2022, 13:54 UTC

1 28211U 81021U   22247.57938090  .00000062  00000-0  11851-3 0  9991
2 28211  64.9654 315.5780 0057272 316.7278  42.9294 13.91798571990162

Śledź COSMOS 1249 COOLANT w czasie rzeczywistym z AllMySat

Download on the App Store